Погода в Демирджи

Турция     39°02′41″N   28°39′10″E
темп.,
°C
ветер,
м/с
пор.,
м/с
влажн.,
%
обл.,
%
осадки,
мм/ч
давл.,
гПа
погр.,
м
25 февраля, чт
чт2500:00+3св458496 0.0 1030278
03:00+1ссв448967 0.0 1030148
06:000ссв46909 0.0 1030218
09:00+2св477716 0.0 1031448
12:00+7св455735 0.0 1030622
15:00+10св454918 0.0 1028841
18:00+9св35554 0.0 1028854
21:00+4св33742 0.0 102941
26 февраля, пт
пт2600:00+2св33800 0.0 103037
03:00+2св33810 0.0 102934
06:00+2св33780 0.0 102929
09:00+4св22680 0.0 102878
12:00+11св12430 0.0 1027500
15:00+14всв12350 0.0 1023814
18:00+13зсз11520 0.0 102248
21:00+7ссв12670 0.0 102322
27 февраля, сб
сб2700:00+6св23660 0.0 102222
03:00+4всв22660 0.0 102222
06:00+3всв12620 0.0 102122
09:00+7в11570 0.0 102022
12:00+12ююз11380 0.0 1018427
15:00+15зюз22360 0.0 1016832
18:00+13зсз33540 0.0 1015220
21:00+7с22730 0.0 101722
28 февраля, вс
вс2800:00+6ссв23720 0.0 101723
03:00+5ссв33700 0.0 101828
06:00+3св33700 0.0 101836
09:00+5ссв33740 0.0 1019134
12:00+9ссв34612 0.0 1019932
15:00+9ссв446139 0.0 1019995
18:00+7ссв457186 0.0 1020738
21:00+3ссв468790 0.1 1023511
1 марта, пн
пн100:00+1св357764 0.0 1025245
03:00−1ссв347932 0.0 1026191
06:00−2ссв35800 0.0 1026238
09:00−1ссв46700 0.0 1027513
12:00+4ссв46450 0.0 1026943
15:00+6ссв45420 0.0 10241063
18:00+3ссв45593 0.0 1025870
21:000ссв33848 0.0 1028142